Regional Weather Roundup
Issued by NWS

Home | Current Version | Previous Version | Graphics & Text | Print | Product List | Glossary On
Versions: 1 2 3 4 5 6 7 8 9 10 11 12 13 14 15 16 17 18 19 20 21 22 23 24 25 26 27 28 29 30 31 32 33 34 35 36 37 38 39 40 41 42 43 44 45 46 47 48 49 50
000
ASUS43 KLOT 280000
RWRIL

ILLINOIS REGIONAL WEATHER ROUNDUP
NATIONAL WEATHER SERVICE CHICAGO/ROMEOVILLE IL
700 PM CDT FRI MAR 27 2015

NOTE: "FAIR" INDICATES FEW OR NO CLOUDS BELOW 12,000 FEET WITH NO
SIGNIFICANT WEATHER AND/OR OBSTRUCTIONS TO VISIBILITY.

* THESE STATIONS ARE NOT UNDER NWS QUALITY CONTROL. THEY ALSO MAY NOT
  REPORT WEATHER SUCH AS PRECIPITATION OR FOG.

ILZ001-002-007-009-015-016-024-280100-
NORTHWEST ILLINOIS

CITY           SKY/WX    TMP DP  RH WIND       PRES   REMARKS
MOLINE         CLEAR     35   7  31 NE6       30.16R WCI  30
6HR MIN TEMP:  33; 6HR MAX TEMP:  39;

$$

ILZ003-004-008-010-011-017-018-280100-
NORTH CENTRAL ILLINOIS

CITY           SKY/WX    TMP DP  RH WIND       PRES   REMARKS
ROCKFORD       NOT AVBL
$$

ILZ005-006-012>014-019>023-280100-
NORTHEAST ILLINOIS

CITY           SKY/WX    TMP DP  RH WIND       PRES   REMARKS
CHICAGO-OHARE  PTCLDY    26  13  57 NE12      30.18R WCI  16
6HR MIN TEMP:  26; 6HR MAX TEMP:  31;

CHICAGO-MIDWAY PTCLDY    27  13  55 N13       30.18R WCI  16
6HR MIN TEMP:  27; 6HR MAX TEMP:  32;

AURORA         CLEAR     31   8  38 N9        30.16R WCI  23
6HR MIN TEMP:  31; 6HR MAX TEMP:  35;

WAUKEGAN       NOT AVBL
DUPAGE AIRPORT CLEAR     27  13  55 E12       30.16R WCI  17
6HR MIN TEMP:  27; 6HR MAX TEMP:  35;

WHEELING       CLEAR     25  13  60 NE9       30.20R WCI  15
6HR MIN TEMP:  25; 6HR MAX TEMP:  30;

NORTHERLY ISL    N/A     25  14  63 N15         N/A  WCI  13
$$

LMZ740>746-280100-
SOUTHERN LAKE MICHIGAN

STATION/POSITION SKY/WX   TEMP    WIND        PRES    VSBY  WAVE
                          AIR SEA DIR/SP/G                  HT/PER
                          (F)     (DEG/KT/KT) (MB)    (MI)  (FT/S)
HARRISON CRIB              24     360/ 20/ 24   N/A
BURNHAM HARBOR             26     360/ 13/ 18   N/A
CALUMET HARBOR             26     360/ 11/ 19 1020.8R
BURNS HARBOR               25     360/ 18/ 24 1021.7
MICHIGAN CITY              24     340/ 24/ 28   N/A
$$

ILZ025>027-034>036-040-047-049-050-058-095>099-280100-
WEST-CENTRAL ILLINOIS

CITY           SKY/WX    TMP DP  RH WIND       PRES   REMARKS
$$

ILZ028>032-037-038-041>044-048-051>054-059>061-280100-
CENTRAL ILLINOIS

CITY           SKY/WX    TMP DP  RH WIND       PRES   REMARKS
PEORIA         NOT AVBL
SPRINGFIELD    CLEAR     36  13  38 N8        30.17R WCI  30
6HR MIN TEMP:  36; 6HR MAX TEMP:  41;

TAYLORVILLE    NOT AVBL
$$

ILZ033-039-045-046-055>057-062-063-280100-
EAST-CENTRAL ILLINOIS

CITY           SKY/WX    TMP DP  RH WIND       PRES   REMARKS
CHAMPAIGN      FAIR      32  13  45 NW16      30.14R WCI  21
MATTOON        CLEAR     32  15  49 N14       30.14R WCI  22
$$

ILZ079-100>102-280100-
SOUTHWEST ILLINOIS

CITY           SKY/WX    TMP DP  RH WIND       PRES   REMARKS
ALTON          PTCLDY    39  12  33 N12       30.15S WCI  32
CAHOKIA*       PTCLDY    40  21  46 N6        30.16R
$$

ILZ064>066-069>071-074>076-080>082-084>086-088>090-092>094-280100-
SOUTH-CENTRAL ILLINOIS

CITY           SKY/WX    TMP DP  RH WIND       PRES   REMARKS
CARBONDALE     MOCLDY    37  22  54 NW8       30.16R WCI  31
6HR MIN TEMP:  37; 6HR MAX TEMP:  40;

$$

ILZ067-068-072-073-078-083-087-091-280100-
SOUTHEAST ILLINOIS

CITY           SKY/WX    TMP DP  RH WIND       PRES   REMARKS
LAWRENCEVILLE  MOCLDY    34  21  59 N14       30.14R WCI  25
$$

ABBREVIATIONS USED IN REMARKS
   TC - TEMPERATURE IN CELSIUS
  WCI - WIND CHILL INDEX
   HX - HEAT INDEX
  VSB - VISIBILITY
$$



USA.gov is the U.S. government's official web portal to all federal, state and local government web resources and services.